AO-07 1 07530U 74089B 21273.51985868 -.00000027 00000-0 11841-3 0 9996 2 07530 101.8675 247.9563 0012077 178.9152 294.1275 12.53650525144891 UO-11 1 14781U 84021B 21273.56166157 .00000318 00000-0 44819-4 0 9990 2 14781 97.5995 268.2594 0009990 95.0660 265.1695 14.83331943 1516 LO-19 1 20442U 90005G 21273.43226358 .00000048 00000-0 34191-4 0 9998 2 20442 98.7530 229.9092 0011121 208.0959 151.9626 14.32998989655860 HUBBLE 1 20580U 90037B 21273.81193127 .00001057 00000-0 52853-4 0 9991 2 20580 28.4698 87.8983 0002801 115.5815 264.4960 15.09755843527196 MET-2/21 1 22782U 93055A 21273.59225310 .00000082 00000-0 60655-4 0 9991 2 22782 82.5505 220.4595 0022468 0.4046 172.8169 13.83838946418067 AO-27 1 22825U 93061C 21273.32403470 .00000014 00000-0 23462-4 0 9992 2 22825 98.9147 293.4961 0009531 89.8661 270.3612 14.30125611460970 IO-26 1 22826U 93061D 21273.47940247 .00000018 00000-0 24884-4 0 9990 2 22826 98.9089 293.5543 0010018 78.0109 282.2195 14.30466068461245 FO-29 1 24278U 96046B 21273.37444733 -.00000023 00000-0 14944-4 0 9990 2 24278 98.5561 327.4005 0349435 237.7068 118.9779 13.53106105240431 NOAA-15 1 25338U 98030A 21273.75211191 .00000046 00000-0 37779-4 0 9990 2 25338 98.6755 301.2995 0009878 340.0657 20.0136 14.26060458216253 GO-32 1 25397U 98043D 21273.47230522 .00000010 00000-0 23992-4 0 9990 2 25397 98.7796 218.7757 0002133 115.2974 244.8426 14.23716653206432 ISS 1 25544U 98067A 21273.92215480 .00001278 00000-0 31500-4 0 9997 2 25544 51.6455 179.9189 0003997 46.1508 30.6402 15.48873844304985 NO-44 1 26931U 01043C 21273.53251115 .00000000 00000-0 31661-4 0 9998 2 26931 67.0537 9.2477 0005472 270.1690 89.8785 14.30634330 44227 SO-50 1 27607U 02058C 21273.53896592 .00000144 00000-0 41055-4 0 9997 2 27607 64.5573 16.9868 0053724 350.1855 9.8193 14.75794648 10017 CO-55 1 27844U 03031E 21273.50467701 .00000109 00000-0 68636-4 0 9990 2 27844 98.6823 280.1300 0010704 130.5334 229.6778 14.22335787946910 CO-57 1 27848U 03031J 21273.45883840 .00000086 00000-0 58531-4 0 9991 2 27848 98.6877 280.6423 0010398 143.1852 217.0042 14.21909441946736 RS-22 1 27939U 03042A 21273.82949043 .00000260 00000-0 55148-4 0 9998 2 27939 98.1562 50.2792 0011809 311.0996 48.9196 14.67028528962979 NOAA-18 1 28654U 05018A 21273.69841604 .00000102 00000-0 79194-4 0 9999 2 28654 98.9841 338.9318 0013882 349.2619 10.8254 14.12642348843399 CO-58 1 28895U 05043F 21273.61586113 .00000363 00000-0 78326-4 0 9992 2 28895 98.0734 44.6436 0015674 236.6327 123.3376 14.63967196849620 Falconsat-3 1 30776U 07006E 21273.36131479 .00008946 00000-0 20548-3 0 9994 2 30776 35.4333 145.4608 0001426 190.1759 169.8940 15.41961230809308 CO-65 1 32785U 08021C 21272.98011360 .00000719 00000-0 82356-4 0 9993 2 32785 97.6229 247.8301 0013573 23.4226 336.7607 14.88816071727793 AAUSAT2 1 32788U 08021F 21273.52356374 .00002097 00000-0 19281-3 0 9991 2 32788 97.5131 263.8247 0009891 278.8685 81.1416 14.95789011729564 DO-64 1 32789U 08021G 21273.36968740 .00004710 00000-0 29728-3 0 9991 2 32789 97.3696 304.6826 0012807 136.4887 223.7355 15.09480623732653 CO-66 1 32791U 08021J 21273.49132796 .00001268 00000-0 13180-3 0 9992 2 32791 97.5819 254.1255 0012725 343.5177 16.5627 14.91544261728511 RS-30 1 32953U 08025A 21273.66074731 .00000021 00000-0 80971-4 0 9998 2 32953 82.5076 345.5059 0020665 107.5060 252.8282 12.43104808606058 PRISM 1 33493U 09002B 21273.48230991 .00001529 00000-0 13517-3 0 9991 2 33493 98.2015 241.1635 0013689 304.7951 55.1981 14.97904130690043 NOAA-19 1 33591U 09005A 21273.74257494 .00000040 00000-0 46944-4 0 9997 2 33591 99.1791 297.0339 0013735 193.4057 166.6750 14.12497866651786 SRMSAT 1 37841U 11058D 21273.46364588 .00000326 00000-0 34262-4 0 9999 2 37841 19.9735 26.3851 0011969 7.8941 59.3221 14.10705261514480 HRBE 1 37855U 11061F 21273.52330640 .00003583 00000-0 17594-3 0 9993 2 37855 101.7203 251.4954 0165432 117.9641 243.8426 15.08194547542019 RS-40 1 38735U 12041C 21273.42675450 -.00000010 00000-0 -14030-3 0 9996 2 38735 82.4740 67.6292 0016626 215.1487 144.8499 12.42583090416222 ZACUBE-1 1 39417U 13066B 21273.53895601 .00000581 00000-0 78233-4 0 9993 2 39417 97.6039 252.4815 0058523 175.1577 185.0216 14.81606373424634 Delfi-N3xt 1 39428U 13066N 21273.38267244 .00001399 00000-0 22611-3 0 9990 2 39428 97.7865 214.5382 0120484 29.3758 331.4150 14.68132273420367 GOMX-1 1 39430U 13066Q 21273.75778022 .00000297 00000-0 62060-4 0 9994 2 39430 97.8093 190.7707 0151001 142.7322 218.4477 14.59679892418407 LO-74 1 39440U 13066AA 21273.50940689 .00000592 00000-0 88561-4 0 9990 2 39440 97.6885 237.7357 0078199 254.5391 104.7173 14.76331987421922 AO-73 1 39444U 13066AE 21273.52567495 .00000708 00000-0 91950-4 0 9991 2 39444 97.5940 254.8504 0057810 164.9609 195.3341 14.82531816423008 SPROUT 1 39770U 14029E 21273.54230219 .00001779 00000-0 19662-3 0 9994 2 39770 97.9230 24.7851 0007873 217.3970 142.6703 14.88682072398974 DTUSAT-2 1 40030U 14033W 21273.31873959 .00000735 00000-0 83878-4 0 9991 2 40030 97.9162 200.5473 0011500 182.9174 177.1978 14.89093363394926 EO-80 1 40032U 14033Y 21273.35204827 .00000851 00000-0 96327-4 0 9991 2 40032 97.9170 200.5891 0011439 183.9820 176.1308 14.89053761394903 HODOYOSHI-1 1 40299U 14070B 21273.83248763 .00001732 00000-0 72147-4 0 9990 2 40299 97.2768 344.5279 0012321 343.2942 153.4631 15.24976625383470 FIREBIRD FU3 1 40377U 15003B 21273.42107637 .00010333 00000-0 36479-3 0 9997 2 40377 99.1128 76.7997 0115278 180.5724 179.5394 15.23323255368768 FIREBIRD FU4 1 40378U 15003C 21273.72229448 .00010459 00000-0 36840-3 0 9997 2 40378 99.1134 77.3237 0115327 179.3393 180.8012 15.23386534368821 GRIFEX 1 40379U 15003D 21273.71179674 .00007600 00000-0 30110-3 0 9990 2 40379 99.1098 65.6992 0126159 214.3829 144.9190 15.18688039368162 NO-84 1 40654U 15025D 21272.33108235 .00096339 13600-4 47729-3 0 1708 2 40654 54.9727 268.1768 0058607 348.6692 11.3087 15.79452862 23416 XW-2A 1 40903U 15049E 21273.83223147 .00006513 00000-0 13409-3 0 9995 2 40903 97.2243 327.9848 0011652 358.9250 127.3680 15.46210477339079 XW-2C 1 40906U 15049H 21273.90572664 .00001750 00000-0 91828-4 0 9997 2 40906 97.4908 274.9777 0014413 174.7517 248.9118 15.16997397333555 XW-2D 1 40907U 15049J 21273.76501352 .00001952 00000-0 10099-3 0 9992 2 40907 97.4897 274.6707 0013953 170.9277 3.5332 15.17351428333566 LILACSAT-2 1 40908U 15049K 21273.86842688 .00001249 00000-0 71087-4 0 9998 2 40908 97.5095 272.4618 0015231 189.3108 288.5745 15.14592361333184 XW-2E 1 40909U 15049L 21273.72495593 .00003102 00000-0 14707-3 0 9998 2 40909 97.4684 278.7733 0013614 156.0683 291.4300 15.19962698333928 XW-2F 1 40910U 15049M 21273.77886402 .00002931 00000-0 14114-3 0 9999 2 40910 97.4758 277.9146 0014837 156.6819 18.0351 15.19459933333715 XW-2B 1 40911U 15049N 21273.77373375 .00001862 00000-0 96759-4 0 9998 2 40911 97.4889 275.3457 0013870 172.3069 2.4202 15.17264161333454 DCBB 1 40912U 15049P 21273.77984729 .00003404 00000-0 15150-3 0 9999 2 40912 97.4463 282.2997 0015417 129.0526 316.8627 15.22055061334216 TW-1A 1 40928U 15051D 21273.74894080 .00011342 00000-0 22409-3 0 9991 2 40928 97.0721 296.1777 0006974 265.2828 217.0670 15.47268595337962 IO-86 1 40931U 15052B 21272.28458740 .00000768 00000-0 17918-4 0 9993 2 40931 5.9977 231.8394 0012458 70.8079 289.3347 14.76691477324677 ATHENOXAT-1 1 41168U 15077C 21273.15770774 .00004790 00000-0 20467-3 0 9995 2 41168 14.9905 210.9576 0010946 196.2547 282.1885 15.16203756320694 ChubuSat-2 1 41338U 16012B 21273.30184238 .00000921 00000-0 64365-4 0 9993 2 41338 31.0023 239.1463 0013549 93.2142 267.0043 15.00619701308363 ChubuSat-3 1 41339U 16012C 21273.58084164 .00000749 00000-0 50929-4 0 9990 2 41339 31.0115 234.4931 0013254 104.0450 256.1658 15.00760070308402 Horyu-4 1 41340U 16012D 21273.22310292 .00001467 00000-0 10252-3 0 9999 2 41340 31.0041 219.0184 0013717 134.2036 225.9729 15.02040861308550 e-st@r-II 1 41459U 16025D 21273.89365806 .00003935 00000-0 19011-3 0 9992 2 41459 98.1563 56.5144 0159370 67.1817 294.6153 15.08748493298319 AAUSAT4 1 41460U 16025E 21273.89709888 .00005512 00000-0 25103-3 0 9998 2 41460 98.1563 60.9477 0145337 49.4609 311.9165 15.12130786298646 LO-87 1 41557U 16033B 21273.85365157 .00004305 00000-0 15062-3 0 9999 2 41557 97.3927 7.2375 0011711 215.6040 285.1520 15.30001960297640 NuSat2 1 41558U 16033C 21273.84241126 .00004652 00000-0 15236-3 0 9996 2 41558 97.4057 11.5464 0010850 207.4116 301.3849 15.32112883297856 Lapan A3 1 41603U 16040E 21273.85563493 .00000440 00000-0 23354-4 0 9992 2 41603 97.2451 316.7271 0013391 0.4089 113.5529 15.20110790292598 Pratham 1 41783U 16059A 21273.36936809 .00000134 00000-0 34931-4 0 9995 2 41783 97.9537 319.8226 0032143 275.2179 84.5355 14.63169919267590 TY-1 1 41844U 16066D 21273.83886257 .00002501 00000-0 99441-4 0 9991 2 41844 97.3995 282.9856 0015920 122.2698 339.2424 15.26128209271971 CAS-2T 1 41847U 16066G 21273.45654688 .00000222 00000-0 44713-4 0 9993 2 41847 98.5903 332.9657 0363927 266.9097 89.0399 14.38242019256975 EO-88 1 42017U 17008BX 21273.24170503 .00005534 00000-0 19992-3 0 9997 2 42017 97.3059 338.9520 0007559 96.8154 263.3947 15.28845959257260 CAS-4B 1 42759U 17034B 21273.65944424 .00001192 00000-0 84575-4 0 9991 2 42759 43.0192 322.6279 0006786 101.6738 46.5785 15.10399691237058 CAS-4A 1 42761U 17034D 21273.87973380 .00001071 00000-0 77122-4 0 9997 2 42761 43.0197 320.3932 0007170 105.9371 244.0157 15.10486842237081 NIUSat 1 42766U 17036B 21273.70681352 .00003504 00000-0 15088-3 0 9996 2 42766 97.2403 315.9907 0015537 158.6740 201.5148 15.23128806237232 Aalto 1 1 42775U 17036L 21273.35706405 .00002710 00000-0 11785-3 0 9992 2 42775 97.2370 315.8452 0014057 158.3442 201.8392 15.23002855237162 URSA MAIOR 1 42776U 17036M 21273.07752085 .00003002 00000-0 12911-3 0 9994 2 42776 97.2382 316.1042 0013840 158.4396 201.7427 15.23300218237143 Max Valier Sat 1 42778U 17036P 21273.43825686 .00003311 00000-0 13933-3 0 9992 2 42778 97.2451 318.5704 0012457 158.2723 201.9046 15.23995399237271 Pegasus 1 42784U 17036V 21273.38080149 .00003997 00000-0 16311-3 0 9993 2 42784 97.2401 319.0534 0011894 160.7227 199.4464 15.24910585237349 NUDATSat 1 42787U 17036Y 21273.90098321 .00005560 00000-0 21138-3 0 9996 2 42787 97.2433 322.3318 0011224 150.5627 209.6253 15.27119889237422 SUCHAI 1 1 42788U 17036Z 21273.12558309 .00004760 00000-0 18871-3 0 9999 2 42788 97.2411 319.9392 0011452 158.0210 202.1522 15.25796912237442 SKCUBE 1 42789U 17036AA 21273.10864622 .00004456 00000-0 17848-3 0 9991 2 42789 97.2404 319.5820 0011349 158.7912 201.3800 15.25488334237343 VZLUSAT 1 1 42790U 17036AB 21273.37287540 .00006346 00000-0 24118-3 0 9998 2 42790 97.2438 321.8060 0010899 152.3933 207.7887 15.27080195237492 VENTA 1 1 42791U 17036AC 21273.09448678 .00004072 00000-0 16379-3 0 9993 2 42791 97.2402 319.5678 0011047 159.0687 201.1006 15.25398393237333 Robusta 1B 1 42792U 17036AD 21273.38822300 .00004846 00000-0 19229-3 0 9990 2 42792 97.2408 320.2752 0010976 157.5038 202.6685 15.25760891237420 D-SAT 1 42794U 17036AF 21273.00690295 .00000698 00000-0 65303-4 0 9993 2 42794 97.4594 287.3368 0123925 236.1044 122.8339 14.91696918232644 TechnoSat 1 42829U 17042E 21273.52737296 .00000402 00000-0 45408-4 0 9996 2 42829 97.4528 137.4000 0014782 150.7793 209.4257 14.91352177229340 QIKCOM-1 1 42983U 98067NF 21273.75223493 .00019326 00000-0 16756-3 0 9995 2 42983 51.6352 83.5406 0002663 30.1332 329.9817 15.69148456223921 AO-91 1 43017U 17073E 21273.49041444 .00002359 00000-0 18646-3 0 9995 2 43017 97.6941 173.2612 0253223 317.8975 40.3023 14.79789178208656 EcAMSat 1 43019U 98067NG 21273.76161345 .00100519 00000-0 33640-3 0 9990 2 43019 51.6386 36.2072 0003559 344.9178 15.1721 15.89358598306878 PICSAT 1 43132U 18004X 21273.16530289 .00005116 00000-0 19941-3 0 9995 2 43132 97.4014 346.7585 0008611 188.7292 171.3798 15.26372616206655 AO-92 1 43137U 18004AC 21273.15535121 .00003920 00000-0 15661-3 0 9995 2 43137 97.3984 346.0987 0008300 191.3305 168.7748 15.25694490206622 TianYi 2 1 43155U 18008A 21273.85112461 .00002410 00000-0 14075-3 0 9995 2 43155 97.3917 335.6123 0016278 329.2968 161.9933 15.12750690204006 Zhou Enlai 1 43156U 18008B 21273.87621613 .00001972 00000-0 11710-3 0 9997 2 43156 97.3958 335.4751 0013544 330.1906 148.0465 15.12375784203948 TianYi 6 1 43158U 18008D 21273.44294785 .00001857 00000-0 11236-3 0 9993 2 43158 97.3898 333.4767 0013000 332.3832 39.7645 15.11762681203803 S-Net D 1 43186U 18014G 21273.49109656 .00001305 00000-0 11784-3 0 9994 2 43186 97.6678 179.1432 0012752 90.1005 270.1678 14.97153484200016 S-Net B 1 43187U 18014H 21273.49105512 .00001308 00000-0 11806-3 0 9990 2 43187 97.6675 179.1058 0012751 90.0204 270.2479 14.97152903200012 S-Net A 1 43188U 18014J 21273.29068079 .00001309 00000-0 11819-3 0 9990 2 43188 97.6679 178.9588 0012731 90.7110 269.5571 14.97151302199982 S-Net C 1 43189U 18014K 21273.49168290 .00001306 00000-0 11788-3 0 9991 2 43189 97.6675 179.0981 0012751 89.9525 270.3158 14.97151713198560 FMN 1 1 43192U 18015A 21273.88958492 .00008121 00000-0 29038-3 0 9999 2 43192 97.5028 49.9315 0013164 227.0957 289.7059 15.28998219203694 Shaonian Xing 1 43199U 18015H 21273.75179398 .00005495 00000-0 20219-3 0 9995 2 43199 97.4819 46.5420 0014363 238.0164 227.8685 15.28198196203720 SurfSat 1 43614U 18070B 21273.23757874 .00009902 00000-0 22154-3 0 9999 2 43614 93.0334 349.7083 0011764 325.5389 34.5103 15.43403206170822 CP-7 DAVE 1 43615U 18070C 21273.21132725 .00009068 00000-0 20526-3 0 9994 2 43615 93.0338 349.6389 0011997 325.7638 34.2843 15.43057658170804 ELFIN-B 1 43616U 18070D 21273.53064506 .00013177 00000-0 26288-3 0 9998 2 43616 93.0292 350.1085 0011223 318.8943 41.1469 15.46765393171007 ELFIN-A 1 43617U 18070E 21273.45466417 .00016239 00000-0 31724-3 0 9990 2 43617 93.0338 351.0284 0010534 315.8207 44.2209 15.47369826171013 CubeBel-1 1 43666U 18083E 21273.81070189 .00002855 00000-0 13640-3 0 9991 2 43666 97.4496 300.8434 0014987 155.3694 319.6055 15.19753186162015 Changshagaoxin 1 43669U 18083H 21273.81878139 .00002504 00000-0 12452-3 0 9996 2 43669 97.4416 297.6043 0011300 149.9637 313.6439 15.18507041161870 Ten-Koh 1 43677U 18084G 21273.31685905 .00000449 00000-0 51753-4 0 9992 2 43677 97.9328 36.7017 0017038 52.4039 307.8722 14.90534604158923 PO-101 1 43678U 18084H 21273.69509269 -.00000088 00000-0 -29157-5 0 9997 2 43678 97.9369 39.5986 0011253 66.8180 293.4225 14.91793275159127 IRVINE 01 1 43693U 18088D 21273.33647759 .00008892 00000-0 33637-3 0 9991 2 43693 85.0316 125.2085 0016107 5.1596 354.9811 15.26666838160430 QO-100 1 43700U 18090A 21273.28554500 .00000143 00000-0 00000-0 0 9994 2 43700 0.0184 172.8908 0002441 50.0091 274.9526 1.00272785 10424 Reaktor Hello World 1 43743U 18096AA 21273.48410950 .00004703 00000-0 16742-3 0 9998 2 43743 97.3790 350.1901 0015303 263.2553 96.6946 15.29338508158182 MinXSS-2 1 43758U 18099A 21273.50594537 .00000612 00000-0 59212-4 0 9999 2 43758 97.6581 342.4807 0016659 59.8351 300.4518 14.96202651154222 AO-95 1 43770U 18099N 21273.43815271 .00000518 00000-0 51864-4 0 9996 2 43770 97.6558 341.2633 0015789 69.0091 291.2817 14.95447165154141 RANGE-B 1 43772U 18099Q 21273.17671482 .00000818 00000-0 78322-4 0 9994 2 43772 97.6649 342.1708 0015180 57.8903 302.3790 14.95782847154119 RANGE-A 1 43773U 18099R 21273.18460732 .00000609 00000-0 60332-4 0 9990 2 43773 97.6488 340.2307 0014631 58.4731 301.7917 14.95304451154093 MOVE-II 1 43780U 18099Y 21273.75610336 .00001680 00000-0 15410-3 0 9994 2 43780 97.6584 342.2371 0014802 65.4099 294.8663 14.96130106154215 SNUSat 2 1 43782U 18099AA 21273.45424682 .00000805 00000-0 77346-4 0 9995 2 43782 97.6555 341.6568 0013752 56.6959 303.5577 14.95677445154163 SnugLite 1 43784U 18099AC 21273.18588823 .00000842 00000-0 80338-4 0 9991 2 43784 97.6518 341.0941 0016161 63.9694 296.3189 14.95813282154144 ITASat 1 1 43786U 18099AE 21273.47109707 .00001214 00000-0 11383-3 0 9992 2 43786 97.6579 342.0465 0016397 62.9601 297.3291 14.95724539154188 EAGLET 1 1 43790U 18099AJ 21273.48122259 .00001093 00000-0 10216-3 0 9994 2 43790 97.6571 342.5100 0014943 66.3808 293.8980 14.96065774153914 ESEO 1 43792U 18099AL 21273.14918649 .00000728 00000-0 70265-4 0 9990 2 43792 97.6535 341.6908 0014746 64.8303 295.4446 14.95796079153919 CSIM 1 43793U 18099AM 21273.44402536 .00001118 00000-0 10252-3 0 9990 2 43793 97.6572 342.5591 0013915 59.5754 300.6841 14.96791305153979 Astrocast 0.1 1 43798U 18099AS 21273.48136944 .00001433 00000-0 13162-3 0 9999 2 43798 97.6579 342.7516 0013428 48.5643 311.6730 14.96317386154225 JO-97 1 43803U 18099AX 21273.14929213 .00001328 00000-0 12318-3 0 9993 2 43803 97.6543 341.4733 0016469 63.6323 296.6587 14.95998266154145 Suomi 100 1 43804U 18099AY 21273.22390061 .00000947 00000-0 89369-4 0 9993 2 43804 97.6540 341.5038 0016538 63.1658 297.1252 14.95963819154168 Al Farabi 2 1 43805U 18099AZ 21273.54298140 .00001529 00000-0 14035-3 0 9998 2 43805 97.6545 342.0936 0016336 63.0029 297.2872 14.96213631154221 CHOMPTT 1 43855U 18104G 21273.50062596 .00003632 00000-0 14607-3 0 9992 2 43855 85.0381 223.8537 0019189 114.9195 245.4045 15.24358089155099 ISAT 1 43879U 18111D 21273.75933257 .00001299 00000-0 11837-3 0 9993 2 43879 97.6745 179.1137 0014507 108.0970 252.1839 14.96774455148805 UWE-4 1 43880U 18111E 21273.46356592 .00000785 00000-0 73101-4 0 9996 2 43880 97.6768 179.3619 0013308 109.6446 250.6213 14.97001531150791 Sparrow 1 43881U 18111F 21273.49703130 .00001690 00000-0 15136-3 0 9993 2 43881 97.6786 179.5477 0014095 106.6514 253.6256 14.97069051150806 Lume 1 1 43908U 18111AJ 21273.28157968 .00003838 00000-0 14829-3 0 9996 2 43908 97.2183 164.5864 0018332 281.0639 78.8539 15.26681869153669 FO-98 1 43933U 19003B 21273.38285857 .00029313 00000-0 10032-2 0 9992 2 43933 97.1756 311.0177 0014852 27.8153 332.3879 15.30086946150132 FO-99 1 43937U 19003F 21273.37061380 .00004585 00000-0 17825-3 0 9990 2 43937 97.1675 312.3246 0022790 4.9867 355.1595 15.26283612150261 MYSat 1 1 44045U 18092F 21273.30030597 .00010450 00000-0 25608-3 0 9993 2 44045 51.6365 274.0850 0008906 225.8819 134.1435 15.41282313147620 AstroCast 0.2 1 44083U 19018F 21273.11808544 .00003745 00000-0 16192-3 0 9995 2 44083 97.3622 332.2048 0011688 331.3663 28.6931 15.23016930138822 AISTechSat 3 1 44103U 19018AB 21273.84129851 .00002760 00000-0 11522-3 0 9993 2 44103 97.3486 333.3447 0012344 339.0832 131.1240 15.24427901139066 AISat 1 1 44104U 19018AC 21273.48429058 .00002848 00000-0 89226-4 0 9990 2 44104 97.4187 351.0199 0055529 343.0573 16.8812 15.32458100139750 Raavana-1 1 44329U 98067QE 21273.77562945 .01556468 11789-4 92199-3 0 9990 2 44329 51.6217 93.0607 0011262 291.1322 68.8491 16.17685678130895 Uguisu 1 44330U 98067QF 21273.50302606 .00761524 31653-3 88066-3 0 9998 2 44330 51.6209 96.3780 0009659 286.0826 73.9124 16.08202582130805 NepaliSat-1 1 44331U 98067QG 21273.79355998 .01326677 13047-2 97211-3 0 9997 2 44331 51.6196 93.0586 0010789 290.1918 69.7937 16.15142367130888 Prox-1 1 44339U 19036A 21273.67316386 .00001802 00000-0 37194-3 0 9995 2 44339 24.0012 31.4295 0010750 254.8124 105.1178 14.53777092120581 Oculus-ASR 1 44348U 19036K 21273.37203244 .00023064 00000-0 30163-3 0 9993 2 44348 28.5120 154.1093 0318029 325.2619 32.7582 15.15237756124823 Armadillo 1 44352U 19036P 21272.29935458 .00039094 00000-0 46129-3 0 9996 2 44352 28.5274 131.2606 0280938 0.2668 359.8046 15.24731185124918 NO-104 1 44354U 19036R 21273.35682251 .00025929 00000-0 33053-3 0 9990 2 44354 28.5278 145.8288 0312473 336.4063 22.2472 15.16908817124906 NO-103 1 44355U 19036S 21273.50399023 .00072795 -46962-5 69610-3 0 9994 2 44355 28.5246 80.4194 0235004 82.6996 280.0249 15.37524191125573 CP9 1 44360U 19036X 21273.50305402 .00326317 27055-4 10745-2 0 9994 2 44360 28.4971 340.3734 0098651 246.4370 112.5851 15.81491816126410 Move-IIb 1 44398U 19038N 21273.60294389 .00004982 00000-0 27496-3 0 9999 2 44398 97.5918 237.2312 0022875 310.6237 49.3001 15.14189214123677 SONATE 1 44400U 19038Q 21273.62728020 .00002165 00000-0 12650-3 0 9996 2 44400 97.6000 237.0336 0023562 310.7589 49.1616 15.12774968123633 BeeSat 9 1 44412U 19038AC 21273.33068917 .00003600 00000-0 20302-3 0 9997 2 44412 97.5996 237.0986 0020773 316.4586 43.5004 15.13649286123310 JAISAT-1 1 44419U 19038F 21273.46513312 .00003623 00000-0 20167-3 0 9996 2 44419 97.6000 237.8634 0019597 313.9326 46.0287 15.14136138123687 LightSail-2 1 44420U 19036AC 21273.28009590 .00014380 00000-0 28384-2 0 9994 2 44420 24.0058 6.3452 0016107 309.6357 50.2714 14.60734803118839 Taurus 1 1 44530U 19059C 21273.75687193 .00000806 00000-0 23769-3 0 9995 2 44530 98.5512 5.0029 0014272 179.5216 180.5996 14.46200171108307 Duchifat 3 1 44854U 19089C 21273.86557026 .00001325 00000-0 11176-3 0 9996 2 44854 36.9655 197.1838 0009196 276.2254 83.7464 14.99655928 98930 OPS-SAT 1 44878U 19092F 21273.55351133 .00002931 00000-0 15209-3 0 9998 2 44878 97.4782 95.5585 0014068 159.0402 201.1411 15.16842780 98769 TO-108 1 44881U 19093C 21273.76478663 .00000160 00000-0 27138-4 0 9991 2 44881 97.9177 351.4158 0014124 315.2368 44.7697 14.81485361 96322 FloripaSat 1 1 44885U 19093G 21273.79114800 .00000554 00000-0 75757-4 0 9995 2 44885 97.9198 352.1897 0013693 322.5018 37.5243 14.82392025 96377 RS-44 1 44909U 19096E 21273.46941989 .00000017 00000-0 23827-4 0 9990 2 44909 82.5236 43.0189 0217074 207.3433 151.6109 12.79711180 82259 SwampSat-2 1 45115U 19071E 21273.42646321 .00407957 00000-0 24431-2 0 9995 2 45115 51.6261 206.8114 0003879 139.1742 220.9548 15.76081662 93841 HO-107 1 45119U 19071J 21273.28416558 .00008469 00000-0 24301-3 0 9992 2 45119 51.6400 248.2902 0010451 312.8005 47.2099 15.36659785 93283 Phoenix 1 45258U 98067RB 21273.25393515 .00021925 00000-0 27954-3 0 9991 2 45258 51.6376 163.6097 0004115 278.7913 81.2614 15.59223542 91543 AztechSat-1 1 45261U 98067RE 21272.84315953 .00098658 00000-0 63743-3 0 9992 2 45261 51.6322 145.7602 0002999 268.7068 91.3588 15.75299172 91776 QARMAN 1 45263U 98067RG 21273.16863975 .00055324 00000-0 49456-3 0 9990 2 45263 51.6357 153.2702 0003285 282.3261 77.7368 15.67818747 91733 Quetzal 1 1 45598U 98067RL 21273.11383515 .00049475 00000-0 49882-3 0 9996 2 45598 51.6373 159.6996 0001460 103.7393 256.3765 15.64873249 80911 BY70-2 1 45857U 20042B 21273.77419126 .00001883 00000-0 27216-3 0 9990 2 45857 97.9783 348.4199 0010083 227.7151 132.3199 14.77326670 67092 UPMSat 2 1 46276U 20061E 21273.45957378 .00001525 00000-0 81315-4 0 9992 2 46276 97.4239 345.0917 0002093 48.5096 311.6317 15.16653280 59458 AmicalSat 1 46287U 20061R 21273.43416343 .00001865 00000-0 11634-3 0 9997 2 46287 97.4793 344.3685 0004313 94.6852 265.4871 15.10711995 59192 SALSAT 1 46495U 20068K 21273.61420857 .00000699 00000-0 55545-4 0 9994 2 46495 97.6987 210.5195 0019013 77.8452 282.4903 15.03571441 55139 BY70-3 1 46839U 20079N 21273.86082243 .00006590 00000-0 19920-3 0 9990 2 46839 97.2315 345.6330 0007143 174.0854 297.5242 15.34528217 50360 SPOC 1 46921U 98067RR 21273.43775149 .00020895 00000-0 29137-3 0 9996 2 46921 51.6408 171.6550 0002863 117.9266 242.2016 15.56861927 51209 Bobcat-1 1 46922U 98067RS 21273.42824101 .00033958 00000-0 41754-3 0 9992 2 46922 51.6410 168.6210 0002824 130.1240 230.0001 15.59930873 51207 Neutron-1 1 46923U 98067RT 21273.33354403 .00021311 00000-0 29854-3 0 9993 2 46923 51.6406 172.4560 0002837 126.8249 233.3003 15.56724206 51216 CAPE 3 1 47309U 21002A 21273.49776751 .00003997 00000-0 18499-3 0 9991 2 47309 60.6842 259.1138 0046208 103.2412 257.3834 15.21210149 38866 AO-109 1 47311U 21002C 21273.41397259 .00003269 00000-0 15057-3 0 9997 2 47311 60.6858 258.1719 0041737 101.0726 259.5058 15.22061771 38842 MiTEE 1 1 47314U 21002F 21273.50570600 .00006467 00000-0 27116-3 0 9995 2 47314 60.6831 255.7165 0041943 93.6153 266.9733 15.23837717 38915 ExoCube 2 1 47319U 21002L 21273.47595677 .00002933 00000-0 13774-3 0 9996 2 47319 60.6842 258.4461 0042427 102.9934 257.5895 15.21683025 38813 UVSQ-SAT 1 47438U 21006AB 21273.25468813 .00002642 00000-0 15130-3 0 9994 2 47438 97.4769 332.5592 0014320 96.1903 264.0960 15.13409655 37902 YUSAT 1 1 47439U 21006AC 21273.45449258 .00002971 00000-0 16952-3 0 9997 2 47439 97.4773 332.7595 0014161 95.9684 264.3161 15.13445793 37931 SOMP 2b 1 47445U 21006AJ 21273.54502377 .00002092 00000-0 12114-3 0 9996 2 47445 97.4741 332.6922 0013952 98.7077 261.5735 15.13237220 37941 IDEASSat 1 47458U 21006AX 21273.43515660 .00002154 00000-0 12515-3 0 9991 2 47458 97.4830 332.8335 0013017 97.1161 263.1551 15.13099377 37924 RSP-01 1 47925U 98067SB 21273.14744955 .00023564 00000-0 36149-3 0 9997 2 47925 51.6413 179.4479 0002680 87.4828 272.6470 15.54176147 31040 TAUSAT-1 1 47926U 98067SC 21273.45106140 .00029371 00000-0 42960-3 0 9990 2 47926 51.6398 176.9679 0003545 86.2536 273.8861 15.55352481 31091 Tsuru 1 47927U 98067SD 21273.10581343 .00021800 00000-0 34002-3 0 9992 2 47927 51.6416 179.9189 0002751 85.4999 274.6305 15.53768839 31036 STARS-EC 1 47928U 98067SE 21273.44708660 .00030975 00000-0 45745-3 0 9992 2 47928 51.6407 177.6887 0006340 138.8306 221.3164 15.55047434 31079 Maya-2 1 47929U 98067SF 21273.16633247 .00020288 00000-0 31676-3 0 9994 2 47929 51.6413 179.5719 0002731 81.6184 278.5116 15.53790076 31000 OPUSAT-II 1 47930U 98067SG 21273.27140407 .00033937 00000-0 49004-3 0 9998 2 47930 51.6411 178.0270 0002641 89.7704 270.3590 15.55630323 31076 GuaraniSat-1 1 47931U 98067SH 21273.29305893 .00020912 00000-0 32590-3 0 9994 2 47931 51.6415 178.9210 0002773 81.8089 278.3216 15.53820572 31066 CubeSX-Sirius-HSE 1 47951U 21022V 21273.72301076 .00001369 00000-0 98130-4 0 9998 2 47951 97.5476 173.7174 0021019 316.9918 127.4677 15.05852912 28895 CubeSX-HSE 1 47952U 21022W 21273.71806522 .00001221 00000-0 87946-4 0 9994 2 47952 97.5466 173.7203 0020872 316.7680 127.9810 15.05891338 28897 KSU-Cubesat 1 47954U 21022Y 21273.29343543 .00001488 00000-0 10595-3 0 9998 2 47954 97.5470 173.3353 0020569 317.3390 42.6239 15.05982532 28552 GRBAlpha 1 47959U 21022AD 21273.71833373 .00001295 00000-0 93014-4 0 9999 2 47959 97.5472 173.7338 0020702 317.2171 127.8081 15.05893782 27717 Orbicraft-Zorkiy 1 47960U 21022AE 21273.90546389 .00000981 00000-0 71334-4 0 9992 2 47960 97.5484 173.9664 0020470 316.2801 109.3812 15.05963671 28439 STECCO 1 47962U 21022AG 21273.83920414 .00001837 00000-0 12625-3 0 9999 2 47962 97.5440 174.1171 0015670 313.8327 111.2482 15.07084938 27741 DO-111 1 47963U 21022AH 21273.23652473 .00004765 00000-0 31405-3 0 9991 2 47963 97.5464 173.6923 0018171 311.5667 48.4003 15.07837252 27686 MO-110 1 47964U 21022AJ 21273.46156737 .00002984 00000-0 20078-3 0 9994 2 47964 97.5461 173.8414 0018465 310.4070 49.5546 15.07367384 27692 FEES 1 48082U 21022AL 21273.45149312 .00003553 00000-0 24092-3 0 9999 2 48082 97.5475 173.7302 0014629 308.8024 51.1897 15.06997385 27396 RamSat 1 48850U 98067SL 21273.15123416 .00014299 00000-0 24639-3 0 9995 2 48850 51.6416 182.4424 0004732 157.9787 202.1407 15.51310944 16753 MO-112 1 48868U 98067SP 21273.44605330 .00030303 00000-0 48635-3 0 9992 2 48868 51.6406 180.6637 0003813 152.7870 207.3321 15.52776545 15588 TUBIN 1 48900U 21059X 21273.71735541 .00001166 00000-0 71033-4 0 9998 2 48900 97.5220 41.0664 0009063 281.8172 185.4536 15.12312078 14643 CUTE 1 49263U 21088D 21273.53708557 .00003547 00000-0 27760-3 0 9992 2 49263 97.6231 341.5145 0017462 238.6587 121.2929 15.01561112 409 /EX